Find Starlink 30545

NORAD ID: 58000 Int'l Des: 2023-153 Owner: SPXS Country: US Constellation: starlink operational
LEOCIRCULAR

Current View

Loading 3D Globe...

About Starlink 30545

Starlink 30545 (NORAD 58000) is a starlink constellation satellite (v2 mini) launched Oct 5, 2023 by SPXS of US. It operates in LEO, CIRCULAR orbit with a mass of 730.00 kg.

About Starlink 30545

Description loading...

Upcoming Passes

Passes for default location (London). Set your location on the main map for personalized predictions.

Altitude History

Loading altitude history...

Two-Line Element Set

1 58000U 23153K 26167.43981302 .00000891 00000-0 41908-4 0 9993
2 58000 43.0118 228.9716 0001989 279.2105 80.8522 15.27581637150006
Epoch: Jun 16, 2026 • Age: 36 hours

Current Status

Altitude 494.9 km
Velocity 7.62 km/s
Sub-Earth Point -42.85°S, 101.29°W
Launch Date Oct 5, 2023
Age 2.6 years
Type internet

Technical Details

Classification Payload
Mass 730.00 kg
Dry Mass 700.00 kg
Total Mass 730.00 kg
Length 0.30 m
Diameter 4.10 m
Span 29.00 m
Shape Box + pan
Manufacturer SPXS
Bus Type Starlink V2M
Phase Status In Orbit
Owner/State SPXS/US

Most Searched